Location: Burgberg
(50.1428°N, 11.0671°E)
Time: 05:53:52
(UTC+00:00)

Meteor 1-16 Rocket - Pass Details

Date: 26 January 2020
Orbit: 789 x 908 km, 81.2° (Epoch: 24 February)

Event Time Altitude Azimuth Distance (km) Brightness Sun altitude
Rises 05:06:20 0° 208° (SSW) 3,520 7.2 -17.8°
Reaches altitude 10° 05:08:54 10° 214° (SW) 2,577 6.5 -17.4°
Maximum altitude 05:14:35 49° 289° (WNW) 1,144 4.5 -16.5°
Drops below altitude 10° 05:20:12 10° 3° (N) 2,537 6.6 -15.6°
Sets 05:22:43 0° 9° (N) 3,462 7.4 -15.2°
